This is the latest recevied weather packets stored in our database for station/object YC0TBU-4. If no packets are shown the sender has not sent any weather packets the latest 10 day(s).
| Time | Temp. | Humidity | Pressure | Rain* | Wind** | Luminosity | Snow |
|---|---|---|---|---|---|---|---|
| 1777918645 | 30° C | 40% | 1011.3 hPa | - | - | - | - |
| 1777917710 | 30° C | 39% | 1011.7 hPa | - | - | - | - |
| 1777916775 | 29.44° C | 40% | 1012 hPa | - | - | - | - |
| 1777915840 | 29.44° C | 40% | 1012.2 hPa | - | - | - | - |
| 1777914910 | 29.44° C | 40% | 1012.6 hPa | - | - | - | - |
| 1777913954 | 29.44° C | 40% | 1011.8 hPa | - | - | - | - |
| 1777913019 | 30° C | 40% | 1011.8 hPa | - | - | - | - |
| 1777912067 | 29.44° C | 41% | 1011.9 hPa | - | - | - | - |
| 1777911132 | 29.44° C | 41% | 1011.8 hPa | - | - | - | - |
| 1777910197 | 30° C | 40% | 1011.4 hPa | - | - | - | - |
| 1777909262 | 28.89° C | 42% | 1011.2 hPa | - | - | - | - |
| 1777908328 | 28.33° C | 42% | 1011.4 hPa | - | - | - | - |
| 1777907392 | 28.33° C | 43% | 1011.4 hPa | - | - | - | - |
| 1777906463 | 27.78° C | 44% | 1012 hPa | - | - | - | - |
| 1777905508 | 27.78° C | 44% | 1011.6 hPa | - | - | - | - |
| 1777904571 | 27.78° C | 44% | 1011.6 hPa | - | - | - | - |
| 1777903620 | 28.33° C | 44% | 1011.3 hPa | - | - | - | - |
| 1777902669 | 26.67° C | 46% | 1011.7 hPa | - | - | - | - |
| 1777901734 | 26.67° C | 47% | 1012 hPa | - | - | - | - |
| 1777900799 | 27.22° C | 45% | 1012 hPa | - | - | - | - |
| 1777899864 | 27.78° C | 44% | 1011.7 hPa | - | - | - | - |
| 1777898929 | 27.22° C | 46% | 1011.1 hPa | - | - | - | - |
| 1777897994 | 28.33° C | 44% | 1011.5 hPa | - | - | - | - |
| 1777897059 | 28.33° C | 43% | 1011.6 hPa | - | - | - | - |
| 1777896124 | 27.78° C | 44% | 1011.6 hPa | - | - | - | - |
* Rain since midnight (hover to see other rain measurements)
** Current wind speed in m/s (hover to see current wind gust speed)